EN

Hourly Weather Otloczyn

Today, 1 March, Monday

Time Temperature Precipitation Wind Pressure Humidity
00:00 0°C° 0 mm 3 mps 770 mmHg 95%
01:00 -1°C° 0 mm 2 mps 770 mmHg 96%
02:00 -1°C° 0 mm 2 mps 770 mmHg 96%
03:00 -1°C° 0 mm 2 mps 770 mmHg 96%
04:00 +1°C° 0 mm 1 mps 770 mmHg 95%
05:00 -1°C° 0 mm 2 mps 770 mmHg 95%
06:00 -1°C° 0 mm 2 mps 770 mmHg 95%
07:00 +1°C° 0 mm 2 mps 771 mmHg 98%
08:00 +2°C° 0 mm 2 mps 771 mmHg 93%
09:00 +3°C° 0 mm 2 mps 771 mmHg 87%
10:00 +5°C° 0 mm 2 mps 771 mmHg 81%
11:00 +6°C° 0 mm 2 mps 771 mmHg 78%
12:00 +7°C° 0 mm 3 mps 771 mmHg 75%
13:00 +8°C° 0 mm 3 mps 771 mmHg 72%
14:00 +8°C° 0 mm 3 mps 771 mmHg 73%
15:00 +8°C° 0 mm 3 mps 770 mmHg 74%
16:00 +8°C° 0 mm 3 mps 770 mmHg 76%
17:00 +5°C° 0 mm 3 mps 770 mmHg 80%
18:00 +4°C° 0 mm 3 mps 770 mmHg 85%
19:00 +3°C° 0 mm 3 mps 770 mmHg 89%
20:00 +3°C° 0 mm 3 mps 770 mmHg 90%
21:00 +2°C° 0 mm 3 mps 770 mmHg 91%
22:00 +2°C° 0 mm 3 mps 770 mmHg 92%
23:00 +2°C° 0 mm 3 mps 770 mmHg 92%

Tomorrow, 2 March, Tuesday

Time Temperature Precipitation Wind Pressure Humidity
00:00 +2°C° 0 mm 3 mps 770 mmHg 92%
01:00 +1°C° 0 mm 4 mps 770 mmHg 92%
02:00 0°C° 0 mm 4 mps 769 mmHg 93%
03:00 0°C° 0 mm 4 mps 769 mmHg 93%
04:00 +1°C° 0 mm 3 mps 768 mmHg 93%
05:00 0°C° 0 mm 4 mps 769 mmHg 93%
06:00 0°C° 0 mm 4 mps 769 mmHg 93%
07:00 -1°C° 0 mm 4 mps 769 mmHg 92%
08:00 +1°C° 0 mm 4 mps 769 mmHg 86%
09:00 +4°C° 0 mm 4 mps 769 mmHg 79%
10:00 +5°C° 0 mm 5 mps 769 mmHg 72%
11:00 +6°C° 0 mm 5 mps 769 mmHg 68%
12:00 +8°C° 0 mm 5 mps 769 mmHg 64%
13:00 +9°C° 0 mm 5 mps 769 mmHg 60%
14:00 +10°C° 0 mm 4 mps 769 mmHg 62%
15:00 +10°C° 0 mm 3 mps 768 mmHg 64%
16:00 +9°C° 0 mm 3 mps 768 mmHg 66%
17:00 +8°C° 0 mm 3 mps 768 mmHg 72%
18:00 +7°C° 0 mm 2 mps 769 mmHg 78%
19:00 +5°C° 0 mm 2 mps 769 mmHg 84%
20:00 +5°C° 0 mm 2 mps 769 mmHg 86%
21:00 +4°C° 0 mm 2 mps 769 mmHg 88%
22:00 +5°C° 0 mm 1 mps 769 mmHg 91%
23:00 +4°C° 0 mm 1 mps 769 mmHg 91%

Day after tomorrow, 3 March, Wednesday

Time Temperature Precipitation Wind Pressure Humidity
00:00 +4°C° 0 mm 1 mps 769 mmHg 92%
01:00 +4°C° 0 mm 1 mps 769 mmHg 92%
02:00 +3°C° 0 mm 1 mps 769 mmHg 92%
03:00 +3°C° 0 mm 1 mps 769 mmHg 92%
04:00 +2°C° 0 mm 0 mps 768 mmHg 92%
05:00 +3°C° 0 mm 1 mps 768 mmHg 92%
06:00 +3°C° 0 mm 1 mps 768 mmHg 93%
07:00 +3°C° 0 mm 1 mps 768 mmHg 93%
08:00 +4°C° 0 mm 1 mps 768 mmHg 88%
09:00 +6°C° 0 mm 1 mps 768 mmHg 83%
10:00 +6°C° 0 mm 2 mps 767 mmHg 78%
11:00 +7°C° 0 mm 2 mps 767 mmHg 72%
12:00 +8°C° 0 mm 2 mps 766 mmHg 66%
13:00 +10°C° 0 mm 2 mps 766 mmHg 61%
14:00 +10°C° 0 mm 2 mps 765 mmHg 61%
15:00 +10°C° 0 mm 2 mps 764 mmHg 61%
16:00 +10°C° 0 mm 2 mps 763 mmHg 61%
17:00 +8°C° 0 mm 2 mps 763 mmHg 65%
18:00 +7°C° 0 mm 2 mps 762 mmHg 70%
19:00 +6°C° 0 mm 2 mps 762 mmHg 74%
20:00 +4°C° 0 mm 3 mps 761 mmHg 77%
21:00 +4°C° 0 mm 3 mps 760 mmHg 80%
22:00 +4°C° 0 mm 3 mps 760 mmHg 84%
23:00 +3°C° 0 mm 3 mps 759 mmHg 85%

4 March, Thursday

Time Temperature Precipitation Wind Pressure Humidity
00:00 +3°C° 0 mm 3 mps 759 mmHg 86%
01:00 +2°C° 0 mm 3 mps 758 mmHg 88%
02:00 +2°C° 0 mm 3 mps 757 mmHg 89%
03:00 +2°C° 0 mm 3 mps 757 mmHg 91%
04:00 +1°C° 0 mm 4 mps 756 mmHg 92%
05:00 +1°C° 0 mm 4 mps 755 mmHg 93%
06:00 +1°C° 0 mm 4 mps 755 mmHg 93%
07:00 +3°C° 0 mm 4 mps 755 mmHg 94%
08:00 +3°C° 0 mm 4 mps 755 mmHg 90%
09:00 +4°C° 0 mm 4 mps 754 mmHg 86%
10:00 +5°C° 0 mm 5 mps 754 mmHg 83%
11:00 +5°C° 0 mm 5 mps 754 mmHg 81%
12:00 +5°C° 0 mm 4 mps 754 mmHg 80%
13:00 +5°C° 0 mm 4 mps 754 mmHg 79%
14:00 +5°C° 0 mm 4 mps 753 mmHg 79%
15:00 +5°C° 0 mm 4 mps 753 mmHg 79%
16:00 +4°C° 0 mm 4 mps 753 mmHg 79%
17:00 +4°C° 0 mm 3 mps 753 mmHg 80%
18:00 +3°C° 0 mm 3 mps 753 mmHg 81%
19:00 +2°C° 0 mm 3 mps 753 mmHg 82%
20:00 +2°C° 0 mm 3 mps 753 mmHg 84%
21:00 +1°C° 0 mm 3 mps 753 mmHg 87%
22:00 0°C° 0 mm 4 mps 753 mmHg 90%
23:00 -1°C° 0 mm 4 mps 753 mmHg 88%

5 March, Friday

Time Temperature Precipitation Wind Pressure Humidity
00:00 -1°C° 0 mm 4 mps 753 mmHg 86%
01:00 -2°C° 0 mm 4 mps 753 mmHg 84%
02:00 -2°C° 0 mm 4 mps 753 mmHg 82%
03:00 -2°C° 0 mm 4 mps 753 mmHg 81%
04:00 -2°C° 0 mm 4 mps 754 mmHg 80%
05:00 -3°C° 0 mm 4 mps 754 mmHg 78%
06:00 -3°C° 0 mm 4 mps 755 mmHg 76%
07:00 -3°C° 0 mm 4 mps 755 mmHg 75%
08:00 -2°C° 0 mm 4 mps 756 mmHg 69%
09:00 -1°C° 0 mm 5 mps 756 mmHg 63%
10:00 0°C° 0 mm 5 mps 757 mmHg 58%
11:00 0°C° 0 mm 4 mps 757 mmHg 55%
12:00 +1°C° 0 mm 4 mps 757 mmHg 51%
13:00 +1°C° 0 mm 4 mps 758 mmHg 48%
14:00 +1°C° 0.1 mm 4 mps 758 mmHg 49%
15:00 +1°C° 0.1 mm 4 mps 758 mmHg 50%
16:00 +1°C° 0.1 mm 4 mps 758 mmHg 51%
17:00 0°C° 0.1 mm 4 mps 759 mmHg 57%
18:00 0°C° 0.1 mm 3 mps 760 mmHg 62%
19:00 -1°C° 0.1 mm 3 mps 760 mmHg 68%
20:00 -2°C° 0 mm 2 mps 761 mmHg 70%
21:00 -2°C° 0 mm 2 mps 761 mmHg 72%
22:00 -3°C° 0 mm 2 mps 762 mmHg 75%
23:00 -3°C° 0 mm 2 mps 762 mmHg 75%

6 March, Saturday

Time Temperature Precipitation Wind Pressure Humidity
00:00 -3°C° 0 mm 2 mps 763 mmHg 74%
01:00 -3°C° 0 mm 2 mps 763 mmHg 74%
02:00 -3°C° 0 mm 2 mps 764 mmHg 72%
03:00 -4°C° 0 mm 3 mps 764 mmHg 69%
04:00 -4°C° 0 mm 3 mps 764 mmHg 67%
05:00 -4°C° 0 mm 3 mps 765 mmHg 68%
06:00 -4°C° 0 mm 3 mps 765 mmHg 68%
07:00 -4°C° 0 mm 3 mps 766 mmHg 69%
08:00 -2°C° 0 mm 3 mps 766 mmHg 61%
09:00 -1°C° 0 mm 3 mps 767 mmHg 54%
10:00 0°C° 0 mm 3 mps 767 mmHg 46%
11:00 +1°C° 0 mm 3 mps 767 mmHg 43%
12:00 +1°C° 0 mm 3 mps 767 mmHg 40%
13:00 +2°C° 0 mm 3 mps 767 mmHg 37%
14:00 +2°C° 0 mm 3 mps 767 mmHg 38%
15:00 +1°C° 0 mm 3 mps 767 mmHg 40%
16:00 +1°C° 0 mm 3 mps 768 mmHg 41%
17:00 0°C° 0 mm 3 mps 768 mmHg 46%
18:00 -1°C° 0 mm 3 mps 768 mmHg 52%
19:00 -2°C° 0 mm 2 mps 768 mmHg 57%
20:00 -2°C° 0 mm 2 mps 768 mmHg 58%
21:00 -3°C° 0 mm 2 mps 769 mmHg 58%
22:00 -3°C° 0 mm 2 mps 769 mmHg 59%
23:00 -3°C° 0 mm 2 mps 768 mmHg 59%
Show more

We Need Your Consent

Meteoprog and our Service Providers may store and access personal data such as cookies, device identifiers or other similar technologies on your device and process such data to personalise content and ads, as well as provide social media features and to analyse the traffic.

  • Store and/or access information on your device

    Cookies, device identifiers or other information can be stored or accessed on your device for the purposes indicated above.

  • Personalised ads and content, ad and content measurement, audience insights, and products development

    Ads and content can be personalised based on a profile. More data can be added to better personalise ads and content. Ad and content performance can be measured. Insights about the audience who saw the ads and content can be derived. Such data can be used to develop or improve user’s experience, systems and software.

By clicking ‘I Agree’ you will allow the use of indicated cookies, device identifiers, web beacons or other similar technologies. Your settings can be changed in the browser on your device.

For certain purposes, legitimate interests may be relied on, rather than consent. You can read more about this in our Privacy and Cookie Policy.